Wind_Speed
9 10 9 10 10 10 10 10 12 13 14 14 14 14 13 13 14 14 13 13 13 13 13 13 13 13 13 13 13 13 13 14 14 14 14 14 13 13 13 13 13 13 13 13
11 11 11 11 11 11 11 12 13 15 15 15 15 15 14 14 14 14 14 14 14 13 13 13 14 14 13 13 13 13 14 14 14 15 15 14 14 14 14 14 14 14 13 13
13 13 12 12 12 12 12 13 14 15 15 15 16 16 15 14 14 15 15 15 16 15 14 14 15 14 13 13 14 14 14 15 15 15 15 15 15 15 15 15 15 14 14 14
14 14 14 14 14 14 14 14 14 15 16 16 16 17 15 15 14 16 16 16 16 16 16 16 16 15 14 14 15 15 15 15 15 15 15 15 15 15 15 15 15 15 15 15
15 14 15 15 15 15 15 15 15 15 15 16 16 17 16 16 15 16 17 17 17 17 16 16 16 16 16 15 15 16 16 16 15 16 16 16 15 15 16 16 15 15 15 15
14 15 15 15 15 15 15 15 15 15 15 15 14 16 17 16 17 18 18 18 18 17 17 17 16 16 17 16 16 16 16 16 16 17 17 16 16 16 16 16 16 16 16 16
15 15 15 15 15 15 15 15 14 15 15 15 14 16 17 18 19 19 19 19 19 18 18 17 17 17 17 18 17 17 16 17 16 17 17 16 16 16 16 16 16 16 16 16
15 16 16 16 16 15 15 15 14 14 13 14 16 17 19 20 20 20 20 20 20 19 19 19 18 18 18 18 17 17 18 17 17 17 17 18 17 16 16 16 16 17 17 17
15 17 17 16 16 16 16 15 15 16 16 17 16 18 20 21 21 20 20 20 20 20 20 19 19 19 18 18 18 19 19 18 18 18 18 17 17 17 17 17 18 18 18 18
16 16 16 17 17 16 16 16 16 16 17 17 15 17 21 22 22 21 21 20 20 21 20 19 19 19 19 19 20 20 20 19 19 19 18 18 18 18 18 19 19 19 20 19
15 15 15 16 17 17 16 16 17 17 18 17 17 19 20 22 23 22 22 22 21 21 21 20 20 20 20 21 21 21 21 20 20 20 19 20 20 20 20 20 20 20 21 21
15 16 16 16 16 17 18 18 18 18 19 18 20 22 22 23 24 24 23 23 22 22 21 21 21 21 21 22 22 22 22 22 21 21 20 21 22 22 22 22 22 21 22 22
17 17 17 17 17 18 18 18 19 20 21 20 21 22 23 24 24 25 24 23 22 22 22 22 23 23 22 22 22 23 23 23 23 23 22 21 21 22 23 23 23 22 23 22
19 19 18 18 18 20 19 19 20 21 22 22 22 23 24 24 24 25 25 24 22 22 22 22 23 23 23 23 23 23 23 24 24 24 24 22 22 23 23 23 23 23 23 23
20 20 20 20 20 21 21 21 21 22 22 23 22 24 25 26 26 26 26 25 24 24 24 24 24 24 24 24 24 24 24 24 25 25 25 25 24 23 23 24 25 25 24 24
20 21 21 21 21 21 21 21 22 22 22 23 23 24 25 26 26 26 26 26 26 25 25 25 25 25 25 26 25 25 25 25 25 25 26 26 25 24 24 25 25 25 24 24
21 22 22 22 21 21 21 21 22 22 22 23 24 24 25 26 26 26 26 26 27 27 26 26 26 26 26 26 26 27 26 26 26 26 26 27 27 26 26 25 25 25 24 23
22 22 22 22 22 22 21 20 21 22 23 23 24 24 24 25 26 26 27 28 29 29 29 28 27 27 27 27 27 28 28 28 28 28 27 27 28 28 27 26 26 25 24 24
22 23 23 22 22 23 21 20 21 23 23 24 24 24 25 25 27 27 27 28 29 29 30 30 29 28 27 27 28 28 29 29 29 29 29 29 29 28 29 28 26 26 26 26
22 22 23 23 23 24 22 22 23 24 24 24 25 25 26 26 27 27 28 29 29 30 30 31 31 31 29 29 29 29 30 30 30 30 30 30 30 29 29 28 28 27 27 26
22 22 23 24 25 25 24 24 24 25 26 26 26 27 27 27 28 28 28 29 29 30 31 31 32 32 32 31 30 31 31 31 31 31 30 30 30 30 29 28 28 27 27 27
22 23 24 24 25 24 24 25 25 26 27 27 27 28 28 29 29 30 30 30 30 31 31 32 32 32 32 32 31 31 32 31 31 30 30 30 30 30 30 29 28 27 28 27
23 24 24 25 25 24 25 26 26 27 27 28 28 29 30 30 30 31 31 31 31 32 31 32 32 32 32 33 33 32 31 31 31 30 30 30 30 30 30 30 29 29 29 28
24 24 26 27 26 26 26 27 27 27 28 28 28 29 29 30 31 31 31 31 31 31 31 31 31 31 31 32 32 31 30 30 30 31 31 30 30 30 29 29 29 30 29 29
24 25 27 27 26 26 26 27 27 27 28 28 28 29 29 30 30 31 30 30 29 30 30 31 31 31 32 32 31 30 30 29 30 30 29 29 29 29 29 28 28 29 29 29
26 26 26 26 26 28 27 28 27 27 27 28 28 28 28 29 30 30 30 29 29 30 31 31 31 32 31 31 31 30 30 29 29 29 29 29 29 29 29 28 28 28 28 28
Wind_Direction
261 265 269 271 270 275 280 284 288 290 294 298 301 300 301 302 302 302 302 302 303 304 304 304 305 304 299 297 296 299 298 296 298 299 298 298 299 302 302 301 301 299 299 298
262 264 269 272 272 272 276 277 280 285 291 296 298 299 300 300 302 303 301 300 302 303 303 303 303 301 297 296 296 299 300 296 295 296 296 296 297 299 300 299 297 296 295 296
261 266 267 268 269 271 273 275 281 286 291 292 296 299 300 301 303 300 298 297 299 300 301 302 302 301 297 297 297 297 299 298 296 295 295 294 295 297 297 296 294 292 290 290
261 265 266 266 265 269 272 276 281 286 290 293 296 297 300 301 301 301 300 298 299 301 301 300 300 300 297 295 297 297 298 296 293 293 294 293 293 295 296 296 296 295 292 289
263 266 266 267 266 269 274 277 281 285 288 289 294 296 297 297 300 299 299 298 300 300 299 298 298 297 295 293 296 296 297 297 294 292 291 291 292 292 294 295 294 293 291 289
267 267 266 268 267 268 272 274 279 284 287 287 291 292 290 293 293 294 298 298 298 298 298 298 295 294 293 291 293 294 296 294 295 294 293 290 289 290 292 292 291 291 290 288
269 270 267 268 269 270 271 273 278 285 291 293 288 287 284 287 292 294 295 295 295 296 296 296 295 293 291 290 290 290 292 293 292 293 291 290 289 289 290 290 290 290 290 288
267 270 269 269 271 273 274 274 274 275 276 278 280 284 287 289 291 291 291 293 294 294 294 294 293 292 292 290 288 287 288 292 291 290 290 288 287 288 288 288 289 289 289 288
266 268 271 273 273 272 273 272 273 273 273 273 276 282 284 287 288 289 290 292 292 292 292 292 292 293 291 289 288 287 288 289 289 288 290 289 287 287 287 286 288 288 288 286
270 271 272 275 274 273 273 274 273 272 272 273 274 277 280 284 289 290 289 290 291 290 289 289 289 291 290 288 290 290 289 288 289 289 288 286 285 285 285 285 285 286 286 284
271 271 273 275 277 277 275 273 272 271 272 273 271 271 276 281 287 288 287 288 289 289 288 288 288 289 290 289 290 291 290 287 288 289 287 287 286 285 285 286 285 285 285 285
271 274 274 275 278 278 277 276 274 271 272 273 275 275 279 281 285 286 287 287 287 288 287 287 287 287 289 289 288 289 289 288 286 287 285 287 285 284 285 286 286 286 286 285
272 273 277 276 276 278 279 278 277 276 274 273 275 279 281 281 283 286 286 287 286 286 286 286 286 286 287 289 287 286 287 287 286 285 287 286 286 286 286 285 285 285 285 283
271 271 274 275 274 279 281 280 279 278 276 275 275 278 280 283 285 286 286 285 285 285 285 287 288 287 287 287 286 286 286 286 286 286 286 288 287 286 287 287 286 285 285 284
272 271 271 273 274 275 277 278 279 280 280 279 277 275 276 280 282 284 285 285 285 284 284 285 287 288 286 286 286 285 285 285 286 286 286 286 288 287 286 286 286 284 284 284
273 272 272 273 276 276 276 276 278 280 281 281 280 277 277 278 279 282 283 284 285 284 285 285 285 287 287 286 285 284 285 284 286 286 287 287 287 287 285 285 285 283 282 283
275 274 274 275 278 279 277 279 281 282 283 282 282 283 282 281 281 282 283 284 284 284 284 285 286 286 286 286 285 284 284 285 284 284 286 287 287 287 286 283 283 283 281 282
274 275 276 278 279 278 282 282 282 284 285 284 284 284 284 283 283 282 282 282 283 284 284 285 286 285 285 286 285 285 284 284 284 282 283 285 284 284 284 282 281 279 278 279
272 273 275 277 278 280 282 284 286 287 286 286 286 286 286 286 285 283 281 281 283 284 285 285 285 285 284 284 285 285 285 284 283 283 281 282 282 282 282 281 280 278 277 278
273 273 274 277 278 280 284 284 285 287 286 287 288 288 287 287 287 287 285 284 284 285 285 284 283 283 284 283 284 285 285 284 283 283 283 282 281 280 281 280 278 277 277 279
272 274 275 278 279 282 285 285 287 286 289 290 290 289 288 288 289 289 288 287 286 287 287 286 284 282 282 283 283 284 284 284 282 282 282 283 281 279 278 278 277 276 276 278
272 275 277 280 280 282 283 285 286 287 288 289 290 289 289 289 289 289 288 288 288 288 288 288 286 284 282 282 283 283 283 283 281 281 282 283 282 279 277 277 275 275 275 277
272 274 277 280 282 283 284 285 284 285 288 290 290 290 290 289 289 291 290 288 287 287 287 288 287 286 284 283 283 283 283 282 281 280 282 282 281 281 277 276 275 275 276 276
271 274 276 278 281 281 282 283 285 285 287 290 290 291 291 292 292 293 291 289 287 287 286 286 287 286 285 284 284 284 283 282 281 280 281 281 281 280 279 277 275 275 275 275
272 274 276 278 281 282 281 283 285 285 287 289 291 292 293 294 295 295 293 290 289 287 286 286 286 286 285 284 284 284 283 281 281 280 279 279 279 279 280 279 276 274 273 273
271 273 276 278 280 282 284 284 286 287 289 292 293 293 294 295 296 296 294 291 289 289 289 289 287 286 285 284 284 283 282 281 281 281 279 279 280 280 280 279 277 275 273 274
Height
5852 5853 5853 5853 5853 5853 5853 5853 5853 5852 5852 5851 5850 5849 5849 5848 5846 5845 5844 5843 5842 5841 5840 5839 5838 5837 5836 5835 5835 5834 5833 5832 5832 5831 5830 5829 5828 5828 5827 5826 5825 5824 5823 5822
5850 5850 5851 5850 5850 5850 5851 5851 5850 5850 5849 5849 5848 5847 5846 5845 5844 5843 5842 5840 5840 5839 5838 5837 5836 5834 5833 5833 5832 5831 5830 5829 5829 5828 5827 5826 5825 5825 5824 5823 5822 5821 5820 5820
5847 5848 5848 5848 5848 5848 5848 5848 5848 5847 5846 5846 5845 5844 5843 5842 5841 5840 5839 5838 5837 5836 5835 5834 5833 5831 5831 5830 5829 5828 5827 5826 5826 5825 5824 5823 5823 5822 5821 5820 5819 5818 5817 5817
5843 5844 5844 5844 5845 5845 5845 5845 5844 5844 5843 5842 5842 5841 5840 5839 5838 5837 5836 5835 5834 5833 5832 5831 5830 5828 5827 5827 5826 5825 5824 5823 5822 5821 5821 5820 5819 5819 5818 5816 5816 5815 5814 5813
5840 5840 5841 5841 5841 5841 5842 5841 5841 5841 5840 5839 5839 5838 5838 5835 5835 5834 5833 5832 5831 5830 5829 5828 5826 5825 5824 5823 5822 5821 5820 5819 5818 5818 5817 5816 5816 5815 5814 5813 5812 5811 5810 5810
5836 5837 5837 5837 5838 5838 5838 5838 5837 5837 5836 5836 5836 5835 5834 5832 5831 5831 5830 5829 5828 5827 5826 5825 5823 5822 5821 5820 5819 5818 5817 5816 5815 5814 5813 5812 5812 5811 5810 5809 5809 5808 5807 5806
5833 5833 5833 5834 5834 5834 5834 5834 5834 5833 5833 5833 5833 5832 5831 5829 5828 5827 5827 5826 5824 5823 5822 5821 5820 5819 5818 5816 5815 5814 5813 5812 5811 5810 5809 5808 5807 5807 5806 5805 5805 5804 5803 5803
5829 5830 5829 5830 5830 5831 5830 5831 5831 5831 5830 5830 5829 5828 5827 5825 5825 5824 5823 5822 5820 5819 5818 5817 5816 5815 5814 5812 5811 5810 5809 5808 5807 5806 5805 5804 5803 5802 5802 5801 5801 5800 5799 5798
5826 5826 5825 5825 5826 5826 5826 5826 5827 5827 5826 5826 5826 5824 5823 5821 5821 5820 5818 5817 5816 5815 5814 5813 5812 5811 5810 5809 5807 5806 5805 5803 5802 5802 5801 5800 5799 5798 5798 5797 5796 5796 5795 5794
5822 5822 5822 5822 5822 5822 5822 5822 5822 5822 5821 5821 5822 5821 5819 5817 5816 5815 5814 5813 5812 5811 5809 5808 5808 5806 5805 5804 5803 5801 5800 5799 5797 5797 5796 5795 5794 5794 5793 5792 5792 5791 5790 5789
5818 5818 5818 5818 5818 5818 5818 5818 5817 5817 5817 5817 5817 5818 5814 5813 5812 5811 5809 5808 5807 5806 5805 5804 5803 5802 5801 5799 5798 5797 5795 5794 5793 5792 5791 5790 5789 5789 5788 5787 5786 5785 5785 5784
5814 5814 5814 5814 5814 5813 5813 5813 5813 5813 5813 5812 5812 5813 5810 5808 5807 5805 5804 5803 5802 5801 5800 5799 5798 5797 5795 5794 5793 5791 5790 5789 5788 5787 5785 5784 5783 5783 5782 5781 5780 5780 5779 5778
5810 5810 5810 5809 5811 5809 5808 5808 5808 5808 5807 5807 5807 5808 5804 5802 5801 5800 5799 5798 5796 5795 5794 5793 5792 5791 5790 5789 5787 5786 5785 5783 5782 5781 5780 5779 5778 5777 5776 5775 5774 5773 5772 5771
5805 5805 5806 5806 5805 5803 5803 5803 5803 5802 5801 5801 5801 5800 5798 5796 5795 5794 5793 5792 5791 5790 5789 5788 5786 5785 5784 5783 5782 5780 5779 5777 5776 5775 5774 5773 5772 5771 5770 5769 5767 5767 5766 5764
5800 5800 5800 5800 5799 5798 5798 5798 5797 5796 5796 5795 5795 5794 5792 5791 5789 5788 5786 5785 5785 5784 5782 5781 5780 5779 5778 5776 5775 5774 5773 5771 5770 5769 5767 5766 5765 5764 5763 5762 5761 5760 5759 5758
5794 5795 5794 5794 5794 5793 5792 5792 5791 5791 5790 5789 5788 5787 5786 5784 5783 5782 5780 5779 5778 5777 5776 5775 5773 5772 5771 5769 5768 5767 5766 5764 5763 5762 5761 5759 5758 5757 5756 5755 5754 5753 5752 5751
5789 5789 5788 5788 5788 5786 5786 5787 5785 5784 5783 5783 5781 5781 5779 5778 5777 5775 5774 5772 5771 5770 5768 5767 5766 5765 5763 5762 5761 5760 5758 5757 5756 5755 5754 5752 5751 5750 5749 5748 5747 5745 5744 5743
5783 5782 5782 5782 5782 5781 5783 5781 5779 5778 5777 5776 5775 5774 5772 5771 5769 5768 5767 5765 5763 5762 5761 5760 5759 5757 5756 5754 5753 5752 5751 5749 5748 5747 5746 5745 5743 5742 5741 5740 5739 5738 5737 5737
5777 5777 5776 5776 5775 5775 5776 5775 5773 5772 5771 5769 5768 5767 5765 5764 5762 5761 5759 5758 5756 5755 5753 5752 5751 5749 5748 5746 5745 5743 5742 5741 5739 5738 5737 5736 5735 5734 5732 5732 5731 5730 5729 5729
5771 5771 5771 5770 5769 5769 5770 5768 5766 5766 5764 5763 5761 5760 5758 5756 5755 5754 5752 5750 5748 5746 5745 5743 5742 5740 5739 5738 5736 5734 5733 5732 5731 5729 5728 5727 5726 5725 5724 5723 5722 5721 5721 5720
5765 5765 5765 5764 5762 5762 5763 5761 5760 5760 5758 5756 5754 5752 5751 5749 5747 5746 5744 5742 5740 5738 5736 5735 5733 5732 5730 5729 5727 5726 5724 5722 5721 5720 5719 5717 5716 5715 5715 5714 5713 5713 5712 5712
5759 5759 5759 5758 5757 5759 5756 5755 5754 5752 5750 5748 5747 5745 5743 5741 5739 5737 5735 5734 5732 5730 5728 5726 5724 5722 5721 5719 5718 5716 5715 5713 5712 5710 5709 5708 5707 5706 5705 5705 5705 5704 5704 5703
5753 5753 5752 5752 5752 5751 5749 5748 5746 5745 5743 5741 5739 5737 5735 5733 5731 5729 5727 5725 5723 5721 5719 5717 5715 5713 5711 5709 5708 5706 5705 5704 5702 5701 5700 5699 5698 5697 5696 5696 5696 5695 5695 5695
5747 5746 5745 5744 5744 5743 5741 5740 5739 5738 5736 5734 5732 5730 5727 5725 5723 5720 5718 5715 5713 5711 5709 5707 5705 5703 5701 5700 5698 5696 5695 5694 5693 5692 5691 5690 5689 5688 5687 5686 5686 5686 5686 5686
5740 5739 5738 5737 5737 5735 5734 5733 5732 5730 5728 5726 5724 5722 5719 5717 5714 5711 5709 5706 5704 5701 5699 5697 5695 5693 5692 5690 5688 5687 5685 5684 5683 5682 5681 5681 5680 5679 5678 5678 5677 5677 5677 5677
5732 5731 5731 5730 5729 5728 5727 5726 5724 5723 5721 5718 5716 5714 5711 5708 5706 5703 5700 5697 5695 5693 5690 5688 5686 5684 5682 5680 5678 5677 5676 5675 5674 5673 5672 5671 5671 5670 5669 5669 5668 5668 5668 5668